Location: Newark
(7.1028°S, 35.3258°W)
Time: 05:31:35
(UTC+00:00)

S-56A Canister/Altair - All Passes

Search period start: 27 February 2020 00:00
Search period end: 08 March 2020 00:00
Orbit: 633 x 2500 km, 38.9° (Epoch: 26 February)

Date Brightness Start Highest point End Pass type
(mag) Time Alt. Az. Time Alt. Az. Time Alt. Az.
27 Feb - 06:17:06 10° S 06:21:57 24° SE 06:28:23 10° E visible
27 Feb - 08:19:02 10° WSW 08:26:06 67° NW 08:37:04 10° NE daylight
27 Feb - 10:26:23 10° WNW 10:32:42 18° NNW 10:40:28 10° N daylight
27 Feb - 19:09:03 10° NNW 19:18:53 31° NE 19:25:59 10° E daylight
27 Feb - 21:14:35 10° WNW 21:24:15 67° SW 21:30:34 10° SE visible
28 Feb - 05:45:19 10° S 05:49:14 18° SE 05:54:05 10° E visible
28 Feb - 07:46:31 10° SW 07:53:10 78° NW 08:03:28 10° NE visible
28 Feb - 09:52:58 10° WNW 09:59:18 20° NNW 10:07:22 10° N daylight
28 Feb - 18:35:44 10° NNW 18:45:36 28° NE 18:52:57 10° E daylight
28 Feb - 20:40:50 10° NW 20:51:25 81° SW 20:58:13 10° SE daylight
28 Feb - 22:52:02 10° WSW 22:55:24 13° SW 22:58:19 10° SSW visible
29 Feb - 05:13:54 10° SSE 05:16:31 13° SE 05:19:29 10° ESE visible
29 Feb - 07:14:06 10° SW 07:20:18 89° SE 07:29:52 10° NE visible
29 Feb - 09:19:45 10° W 09:26:01 23° NNW 09:34:13 10° NNE daylight
29 Feb - 18:02:28 10° NNW 18:12:14 25° NE 18:19:47 10° E daylight
29 Feb - 20:07:06 10° NW 20:18:29 87° NE 20:25:48 10° SE daylight
29 Feb - 22:17:14 10° W 22:22:37 18° SW 22:26:55 10° S visible
01 Mar - 06:41:45 10° SW 06:47:32 74° SE 06:56:16 10° NE visible
01 Mar - 08:46:42 10° W 08:52:48 25° NNW 09:01:02 10° NNE daylight
01 Mar - 17:29:16 10° NNW 17:38:47 22° NNE 17:46:25 10° E daylight
01 Mar - 19:33:23 10° NW 19:45:26 76° NE 19:53:17 10° SE daylight
01 Mar - 21:42:45 10° W 21:49:50 24° SW 21:55:07 10° S visible
02 Mar - 06:09:28 10° SW 06:14:50 58° SE 06:22:42 10° ENE visible
02 Mar - 08:13:47 10° W 08:19:41 28° NW 08:27:50 10° NNE daylight
02 Mar - 16:56:10 10° N 17:05:15 20° NNE 17:12:49 10° ENE daylight
02 Mar - 18:59:42 10° NW 19:12:18 66° NE 19:20:40 10° ESE daylight
02 Mar - 21:08:25 10° W 21:17:00 31° SW 21:23:08 10° SSE visible
03 Mar - 05:37:15 10° SSW 05:42:12 45° SE 05:49:06 10° ENE visible
03 Mar - 07:40:58 10° W 07:46:39 31° NW 07:54:38 10° NNE visible
03 Mar - 16:23:12 10° N 16:31:38 18° NNE 16:38:56 10° ENE daylight
03 Mar - 18:26:04 10° NW 18:39:04 58° NE 18:47:57 10° ESE daylight
03 Mar - 20:34:10 10° WNW 20:44:08 39° SW 20:51:01 10° SSE daylight
04 Mar - 05:05:07 10° SSW 05:09:36 34° SE 05:15:32 10° ENE visible
04 Mar - 07:08:16 10° WSW 07:13:42 36° NW 07:21:27 10° NNE visible
04 Mar - 15:50:27 10° N 15:57:56 16° NNE 16:04:41 10° ENE daylight
04 Mar - 17:52:28 10° NNW 18:05:44 52° NE 18:15:09 10° ESE daylight
04 Mar - 19:59:58 10° WNW 20:11:11 48° SW 20:18:46 10° SSE daylight
05 Mar - 04:33:04 10° SSW 04:37:02 25° SE 04:41:55 10° E visible
05 Mar - 06:35:38 10° WSW 06:40:51 41° NW 06:48:18 10° NNE visible
05 Mar - 15:18:03 10° N 15:24:11 13° NNE 15:29:55 10° ENE daylight
05 Mar - 17:18:57 10° NNW 17:32:19 46° NE 17:42:10 10° ESE daylight
05 Mar - 19:25:51 10° WNW 19:38:10 57° SW 19:46:26 10° SE daylight
05 Mar - 21:40:26 10° SW 21:43:05 11° SW 21:45:29 10° SSW visible
06 Mar - 04:01:07 10° S 04:04:26 19° SE 04:08:13 10° E night (unlit)
06 Mar - 06:03:04 10° WSW 06:08:05 49° NW 06:15:10 10° NE visible
06 Mar - 14:46:24 10° NNE 14:50:22 11° NNE 14:54:12 10° NE daylight
06 Mar - 16:45:31 10° NNW 16:58:49 41° NE 17:09:05 10° ESE daylight
06 Mar - 18:51:49 10° WNW 19:05:02 67° SW 19:14:00 10° SE daylight
06 Mar - 21:04:38 10° WSW 21:10:04 16° SW 21:14:33 10° S visible
07 Mar - 03:29:25 10° S 03:31:48 14° SE 03:34:21 10° ESE night (unlit)
07 Mar - 05:30:33 10° WSW 05:35:23 61° NW 05:42:04 10° NE visible
07 Mar - 07:39:59 10° NW 07:40:48 10° NNW 07:41:38 10° NNW visible
07 Mar - 16:12:11 10° NNW 16:25:14 37° NE 16:35:48 10° E daylight
07 Mar - 18:17:51 10° NW 18:31:49 77° SW 18:41:27 10° SE daylight
07 Mar - 20:29:32 10° W 20:37:02 20° SW 20:42:53 10° S daylight
